| time (UTC) | temp C | wind direction | speed KPH | gust KPH | rain 1hr cm | rain 24hr cm | rain mn cm | humidity % | barometer mb |
| 20260507183022 | 33 | 0.0 | 0.0 | 0.00 | 0.00 | 0.00 | 15 | 1011.9 | |
| 20260507182018 | 33 | 57 | 0.0 | 11.3 | 0.00 | 0.00 | 0.00 | 16 | 1011.9 |
| 20260507181034 | 32 | 168 | 0.0 | 3.2 | 0.00 | 0.00 | 0.00 | 15 | 1012.2 |
| 20260507180029 | 32 | 178 | 0.0 | 1.6 | 0.00 | 0.00 | 0.00 | 16 | 1012.3 |
| 20260507175026 | 32 | 133 | 0.0 | 1.6 | 0.00 | 0.00 | 0.00 | 17 | 1012.2 |
| 20260507174022 | 32 | 0.0 | 0.0 | 0.00 | 0.00 | 0.00 | 17 | 1012.4 | |
| 20260507173017 | 31 | 0.0 | 0.0 | 0.00 | 0.00 | 0.00 | 18 | 1012.6 | |
| 20260507172032 | 31 | 0.0 | 0.0 | 0.00 | 0.00 | 0.00 | 17 | 1012.7 | |
| 20260507171049 | 31 | 151 | 0.0 | 1.6 | 0.00 | 0.00 | 0.00 | 19 | 1012.7 |
| 20260507170024 | 30 | 138 | 0.0 | 1.6 | 0.00 | 0.00 | 0.00 | 20 | 1012.7 |
| 20260507165019 | 30 | 158 | 0.0 | 3.2 | 0.00 | 0.00 | 0.00 | 21 | 1012.7 |
| 20260507164015 | 29 | 154 | 0.0 | 6.4 | 0.00 | 0.00 | 0.00 | 23 | 1012.8 |
| 20260507163031 | 28 | 159 | 0.0 | 3.2 | 0.00 | 0.00 | 0.00 | 23 | 1012.9 |
| 20260507162028 | 28 | 0.0 | 0.0 | 0.00 | 0.00 | 0.00 | 24 | 1013.0 | |
| 20260507161023 | 27 | 0.0 | 0.0 | 0.00 | 0.00 | 0.00 | 26 | 1012.9 | |
| 20260507160017 | 27 | 0.0 | 0.0 | 0.00 | 0.00 | 0.00 | 26 | 1013.2 | |
| 20260507155034 | 26 | 0.0 | 0.0 | 0.00 | 0.00 | 0.00 | 26 | 1013.2 | |
| 20260507154028 | 26 | 169 | 0.0 | 1.6 | 0.00 | 0.00 | 0.00 | 26 | 1013.0 |
| 20260507153023 | 26 | 0.0 | 0.0 | 0.00 | 0.00 | 0.00 | 26 | 1013.0 | |
| 20260507152018 | 25 | 56 | 0.0 | 1.6 | 0.00 | 0.00 | 0.00 | 25 | 1012.9 |
| 20260507151033 | 25 | 70 | 0.0 | 6.4 | 0.00 | 0.00 | 0.00 | 24 | 1012.8 |
| 20260507150029 | 25 | 0.0 | 0.0 | 0.00 | 0.00 | 0.00 | 26 | 1012.9 | |
| 20260507145024 | 24 | 57 | 0.0 | 3.2 | 0.00 | 0.00 | 0.00 | 29 | 1012.9 |
| 20260507144020 | 23 | 0.0 | 0.0 | 0.00 | 0.00 | 0.00 | 31 | 1013.0 | |
| 20260507143016 | 22 | 0.0 | 0.0 | 0.00 | 0.00 | 0.00 | 30 | 1012.8 | |
| 20260507142051 | 21 | 59 | 0.0 | 1.6 | 0.00 | 0.00 | 0.00 | 33 | 1012.9 |
| 20260507141027 | 21 | 0.0 | 0.0 | 0.00 | 0.00 | 0.00 | 34 | 1012.6 | |
| 20260507140023 | 21 | 0.0 | 0.0 | 0.00 | 0.00 | 0.00 | 35 | 1012.7 | |
| 20260507135100 | 20 | 0.0 | 0.0 | 0.00 | 0.00 | 0.00 | 37 | 1012.6 | |
| 20260507134035 | 19 | 0.0 | 0.0 | 0.00 | 0.00 | 0.00 | 38 | 1012.5 | |
| 20260507133030 | 18 | 0.0 | 0.0 | 0.00 | 0.00 | 0.00 | 39 | 1012.6 | |
| 20260507132044 | 17 | 0.0 | 0.0 | 0.00 | 0.00 | 0.00 | 42 | 1012.5 | |
| 20260507131019 | 16 | 0.0 | 0.0 | 0.00 | 0.00 | 0.00 | 41 | 1012.3 | |
| 20260507130034 | 16 | 0.0 | 0.0 | 0.00 | 0.00 | 0.00 | 40 | 1012.4 | |
| 20260507125030 | 16 | 0.0 | 0.0 | 0.00 | 0.00 | 0.00 | 40 | 1012.3 | |
| 20260507124025 | 16 | 0.0 | 0.0 | 0.00 | 0.00 | 0.00 | 39 | 1012.4 | |
| 20260507123020 | 16 | 0.0 | 0.0 | 0.00 | 0.00 | 0.00 | 39 | 1012.2 | |
| 20260507122017 | 16 | 0.0 | 0.0 | 0.00 | 0.00 | 0.00 | 38 | 1012.4 | |
| 20260507121032 | 17 | 0.0 | 0.0 | 0.00 | 0.00 | 0.00 | 38 | 1012.3 | |
| 20260507120025 | 17 | 0.0 | 0.0 | 0.00 | 0.00 | 0.00 | 38 | 1012.2 | |
| 20260507115020 | 17 | 0.0 | 0.0 | 0.00 | 0.00 | 0.00 | 37 | 1012.3 | |
| 20260507114017 | 17 | 0.0 | 0.0 | 0.00 | 0.00 | 0.00 | 37 | 1012.2 | |
| 20260507113031 | 17 | 0.0 | 0.0 | 0.00 | 0.00 | 0.00 | 37 | 1012.0 | |
| 20260507112047 | 18 | 0.0 | 0.0 | 0.00 | 0.00 | 0.00 | 36 | 1012.1 | |
| 20260507111021 | 18 | 0.0 | 0.0 | 0.00 | 0.00 | 0.00 | 36 | 1012.2 | |
| 20260507110037 | 18 | 0.0 | 0.0 | 0.00 | 0.00 | 0.00 | 35 | 1012.3 | |
| 20260507105032 | 18 | 0.0 | 0.0 | 0.00 | 0.00 | 0.00 | 36 | 1012.3 | |
| 20260507104027 | 18 | 0.0 | 0.0 | 0.00 | 0.00 | 0.00 | 36 | 1012.5 | |
| 20260507103022 | 18 | 0.0 | 0.0 | 0.00 | 0.00 | 0.00 | 36 | 1012.5 | |
| 20260507102017 | 18 | 0.0 | 0.0 | 0.00 | 0.00 | 0.00 | 36 | 1012.4 | |
| 20260507101032 | 18 | 0.0 | 0.0 | 0.00 | 0.00 | 0.00 | 36 | 1012.5 | |
| 20260507100028 | 18 | 0.0 | 0.0 | 0.00 | 0.00 | 0.00 | 35 | 1012.7 | |
| 20260507095044 | 19 | 0.0 | 0.0 | 0.00 | 0.00 | 0.00 | 35 | 1012.8 | |
| 20260507094018 | 19 | 0.0 | 0.0 | 0.00 | 0.00 | 0.00 | 34 | 1012.8 | |
| 20260507093033 | 19 | 0.0 | 0.0 | 0.00 | 0.00 | 0.00 | 35 | 1012.8 | |
| 20260507092029 | 19 | 0.0 | 0.0 | 0.00 | 0.00 | 0.00 | 34 | 1012.8 | |
| 20260507091044 | 19 | 0.0 | 0.0 | 0.00 | 0.00 | 0.00 | 34 | 1012.9 | |
| 20260507090019 | 20 | 0.0 | 0.0 | 0.00 | 0.00 | 0.00 | 34 | 1012.8 | |
| 20260507085034 | 19 | 0.0 | 0.0 | 0.00 | 0.00 | 0.00 | 34 | 1012.9 | |
| 20260507084029 | 19 | 0.0 | 0.0 | 0.00 | 0.00 | 0.00 | 35 | 1013.0 | |
| 20260507083045 | 19 | 0.0 | 0.0 | 0.00 | 0.00 | 0.00 | 35 | 1013.0 | |
| 20260507082020 | 20 | 0.0 | 0.0 | 0.00 | 0.00 | 0.00 | 34 | 1013.0 | |
| 20260507081035 | 20 | 0.0 | 0.0 | 0.00 | 0.00 | 0.00 | 34 | 1013.1 | |
| 20260507080030 | 20 | 0.0 | 0.0 | 0.00 | 0.00 | 0.00 | 33 | 1013.3 | |
| 20260507075025 | 20 | 0.0 | 0.0 | 0.00 | 0.00 | 0.00 | 33 | 1013.2 | |
| 20260507074020 | 20 | 0.0 | 0.0 | 0.00 | 0.00 | 0.00 | 32 | 1013.2 | |
| 20260507073057 | 21 | 0.0 | 0.0 | 0.00 | 0.00 | 0.00 | 32 | 1013.1 | |
| 20260507072030 | 21 | 0.0 | 0.0 | 0.00 | 0.00 | 0.00 | 32 | 1012.9 | |
| 20260507071024 | 21 | 0.0 | 0.0 | 0.00 | 0.00 | 0.00 | 32 | 1012.9 | |
| 20260507070019 | 21 | 0.0 | 0.0 | 0.00 | 0.00 | 0.00 | 32 | 1013.0 | |
| 20260507065034 | 21 | 0.0 | 0.0 | 0.00 | 0.00 | 0.00 | 32 | 1013.0 | |
| 20260507064029 | 21 | 0.0 | 0.0 | 0.00 | 0.00 | 0.00 | 32 | 1013.0 | |
| 20260507063024 | 21 | 0.0 | 0.0 | 0.00 | 0.00 | 0.00 | 31 | 1013.0 | |
| 20260507062119 | 21 | 0.0 | 0.0 | 0.00 | 0.00 | 0.00 | 31 | 1013.0 | |
| 20260507061053 | 21 | 0.0 | 0.0 | 0.00 | 0.00 | 0.00 | 31 | 1012.8 | |
| 20260507060027 | 21 | 0.0 | 0.0 | 0.00 | 0.00 | 0.00 | 30 | 1012.9 | |
| 20260507055022 | 21 | 0.0 | 0.0 | 0.00 | 0.00 | 0.00 | 30 | 1013.0 | |
| 20260507054037 | 22 | 0.0 | 0.0 | 0.00 | 0.00 | 0.00 | 30 | 1012.9 | |
| 20260507053031 | 22 | 0.0 | 0.0 | 0.00 | 0.00 | 0.00 | 29 | 1013.0 | |
| 20260507052027 | 22 | 0.0 | 0.0 | 0.00 | 0.00 | 0.00 | 29 | 1013.0 | |
| 20260507051021 | 22 | 0.0 | 0.0 | 0.00 | 0.00 | 0.00 | 28 | 1012.8 | |
| 20260507050017 | 22 | 0.0 | 0.0 | 0.00 | 0.00 | 0.00 | 28 | 1012.9 | |
| 20260507045031 | 22 | 0.0 | 0.0 | 0.00 | 0.00 | 0.00 | 27 | 1012.8 | |
| 20260507044026 | 23 | 0.0 | 0.0 | 0.00 | 0.00 | 0.00 | 26 | 1012.6 | |
| 20260507043021 | 23 | 0.0 | 0.0 | 0.00 | 0.00 | 0.00 | 26 | 1012.6 | |
| 20260507042016 | -17 | 0.0 | 0.0 | 0.00 | 0.00 | 0.00 | 1012.6 | ||
| 20260507041031 | -17 | 0.0 | 0.0 | 0.00 | 0.00 | 0.00 | 1012.4 | ||
| 20260507040025 | 24 | 0.0 | 0.0 | 0.00 | 0.00 | 0.00 | 25 | 1012.3 | |
| 20260507035020 | 24 | 0.0 | 0.0 | 0.00 | 0.00 | 0.00 | 25 | 1012.2 | |
| 20260507034035 | 24 | 0.0 | 0.0 | 0.00 | 0.00 | 0.00 | 25 | 1012.1 | |
| 20260507033031 | 25 | 0.0 | 0.0 | 0.00 | 0.00 | 0.00 | 24 | 1012.0 | |
| 20260507032024 | 25 | 0.0 | 0.0 | 0.00 | 0.00 | 0.00 | 24 | 1011.8 | |
| 20260507030035 | 25 | 0.0 | 0.0 | 0.00 | 0.00 | 0.00 | 24 | 1011.7 | |
| 20260507025031 | 25 | 0.0 | 0.0 | 0.00 | 0.00 | 0.00 | 24 | 1011.5 | |
| 20260507024026 | 26 | 0.0 | 0.0 | 0.00 | 0.00 | 0.00 | 23 | 1011.5 | |
| 20260507022036 | 26 | 0.0 | 0.0 | 0.00 | 0.00 | 0.00 | 23 | 1011.3 | |
| 20260507021052 | 26 | 0.0 | 0.0 | 0.00 | 0.00 | 0.00 | 23 | 1011.3 | |
| 20260507020027 | 27 | 0.0 | 0.0 | 0.00 | 0.00 | 0.00 | 22 | 1011.1 | |
| 20260507015021 | 27 | 0.0 | 0.0 | 0.00 | 0.00 | 0.00 | 22 | 1011.4 | |
| 20260507014016 | 27 | 0.0 | 0.0 | 0.00 | 0.00 | 0.00 | 22 | 1011.1 | |
| 20260507013032 | 27 | 0.0 | 0.0 | 0.00 | 0.00 | 0.00 | 22 | 1011.1 | |
| 20260507012027 | 28 | 0.0 | 0.0 | 0.00 | 0.00 | 0.00 | 21 | 1011.2 | |
| 20260507011023 | 28 | 0.0 | 0.0 | 0.00 | 0.00 | 0.00 | 21 | 1011.0 | |
| 20260507010017 | 28 | 0.0 | 0.0 | 0.00 | 0.00 | 0.00 | 21 | 1011.2 | |
| 20260507005054 | 28 | 0.0 | 0.0 | 0.00 | 0.00 | 0.00 | 21 | 1011.1 | |
| 20260507004027 | 28 | 287 | 0.0 | 3.2 | 0.00 | 0.00 | 0.00 | 21 | 1011.1 |
| 20260507003045 | 28 | 205 | 0.0 | 1.6 | 0.00 | 0.00 | 0.00 | 21 | 1011.1 |
| 20260507002018 | 28 | 0.0 | 0.0 | 0.00 | 0.00 | 0.00 | 21 | 1011.0 | |
| 20260507001054 | 28 | 269 | 1.6 | 11.3 | 0.00 | 0.00 | 0.00 | 21 | 1011.0 |
| 20260507000031 | 28 | 250 | 0.0 | 3.2 | 0.00 | 0.00 | 0.00 | 21 | 1011.0 |
| 20260506235025 | 29 | 245 | 0.0 | 9.7 | 0.00 | 0.00 | 0.00 | 22 | 1011.0 |
| 20260506234019 | 28 | 255 | 0.0 | 3.2 | 0.00 | 0.00 | 0.00 | 21 | 1011.2 |
| 20260506233034 | 29 | 265 | 0.0 | 9.7 | 0.00 | 0.00 | 0.00 | 21 | 1011.3 |
| 20260506232029 | 28 | 181 | 0.0 | 9.7 | 0.00 | 0.00 | 0.00 | 22 | 1011.4 |
| 20260506231024 | 28 | 135 | 0.0 | 1.6 | 0.00 | 0.00 | 0.00 | 22 | 1011.5 |
| 20260506230021 | 28 | 247 | 0.0 | 1.6 | 0.00 | 0.00 | 0.00 | 22 | 1011.6 |
| 20260506225034 | 28 | 0.0 | 0.0 | 0.00 | 0.00 | 0.00 | 21 | 1011.7 | |
| 20260506224029 | 28 | 0.0 | 0.0 | 0.00 | 0.00 | 0.00 | 21 | 1011.8 | |
| 20260506223024 | 28 | 0.0 | 0.0 | 0.00 | 0.00 | 0.00 | 21 | 1011.8 | |
| 20260506222018 | 28 | 0.0 | 0.0 | 0.00 | 0.00 | 0.00 | 22 | 1012.0 | |
| 20260506221035 | 28 | 180 | 0.0 | 4.8 | 0.00 | 0.00 | 0.00 | 23 | 1012.2 |
| 20260506220029 | 28 | 0.0 | 0.0 | 0.00 | 0.00 | 0.00 | 20 | 1012.3 | |
| 20260506215023 | 28 | 303 | 0.0 | 1.6 | 0.00 | 0.00 | 0.00 | 22 | 1012.5 |
| 20260506214019 | 28 | 308 | 0.0 | 9.7 | 0.00 | 0.00 | 0.00 | 22 | 1012.6 |
| 20260506213034 | 28 | 298 | 0.0 | 4.8 | 0.00 | 0.00 | 0.00 | 22 | 1012.7 |
| 20260506212030 | 28 | 261 | 0.0 | 1.6 | 0.00 | 0.00 | 0.00 | 23 | 1012.9 |
| 20260506211026 | 28 | 218 | 0.0 | 6.4 | 0.00 | 0.00 | 0.00 | 24 | 1013.0 |
| 20260506210020 | 28 | 190 | 0.0 | 1.6 | 0.00 | 0.00 | 0.00 | 23 | 1013.3 |
| 20260506205015 | 27 | 331 | 0.0 | 6.4 | 0.00 | 0.00 | 0.00 | 23 | 1013.4 |
| 20260506204051 | 27 | 13 | 0.0 | 3.2 | 0.00 | 0.00 | 0.00 | 21 | 1013.6 |
| 20260506203027 | 27 | 283 | 0.0 | 11.3 | 0.00 | 0.00 | 0.00 | 23 | 1013.7 |
| 20260506202022 | 28 | 0.0 | 0.0 | 0.00 | 0.00 | 0.00 | 23 | 1013.6 | |
| 20260506201017 | 27 | 262 | 1.6 | 9.7 | 0.00 | 0.00 | 0.00 | 24 | 1013.9 |
| 20260506200033 | 27 | 335 | 0.0 | 1.6 | 0.00 | 0.00 | 0.00 | 23 | 1013.8 |
| 20260506195028 | 27 | 330 | 0.0 | 3.2 | 0.00 | 0.00 | 0.00 | 23 | 1014.1 |
| 20260506194023 | 27 | 2 | 0.0 | 11.3 | 0.00 | 0.00 | 0.00 | 23 | 1014.2 |
| 20260506193018 | 27 | 283 | 0.0 | 9.7 | 0.00 | 0.00 | 0.00 | 25 | 1014.2 |
| 20260506192034 | 27 | 333 | 0.0 | 6.4 | 0.00 | 0.00 | 0.00 | 23 | 1014.3 |
| 20260506191030 | 28 | 0.0 | 0.0 | 0.00 | 0.00 | 0.00 | 25 | 1014.5 | |
| 20260506190025 | 27 | 293 | 0.0 | 6.4 | 0.00 | 0.00 | 0.00 | 24 | 1014.6 |
| 20260506185020 | 27 | 268 | 0.0 | 1.6 | 0.00 | 0.00 | 0.00 | 24 | 1014.7 |
| 20260506184036 | 27 | 0.0 | 0.0 | 0.00 | 0.00 | 0.00 | 25 | 1014.8 |